Regional Weather Roundup
Issued by NWS Charleston, SC

Current Version | Previous Version | Graphics & Text | Print | Product List | Glossary On
Versions: 1 2 3 4 5 6 7 8 9 10 11 12 13 14 15 16 17 18 19 20 21 22 23 24 25 26 27 28 29 30 31 32 33 34 35 36 37 38 39 40 41 42 43 44 45 46 47 48 49 50
000
ASUS42 KCHS 042127
RWRCHS

REGIONAL WEATHER ROUNDUP
NATIONAL WEATHER SERVICE CHARLESTON SC
400 PM EST SUN DEC 04 2016

NOTE: "FAIR" INDICATES FEW OR NO CLOUDS BELOW 12,000 FEET WITH NO
SIGNIFICANT WEATHER AND/OR OBSTRUCTIONS TO VISIBILITY.

NOT ALL STATIONS ARE QUALITY CONTROLLED. USE DATA WITH CAUTION...
ESPECIALLY DEWPOINT OBSERVATIONS.

SCZ027-030-031-034>040-042>050-042200-
...SOUTHEAST SOUTH CAROLINA...

CITY           SKY/WX    TMP DP  RH WIND       PRES   REMARKS
N CHARLESTON   CLOUDY    59  49  69 E12       30.11F
WATERFRONT PRK   N/A     58  53  83 NE12      30.10F
MOUNT PLEASANT CLOUDY    57  52  82 NE3       30.12S
JOHNS ISLAND   CLOUDY    59  52  77 NE12G18   30.10F
PINOPOLIS        N/A     52  46  82 E10       30.06R
MONCKS CORNER  CLOUDY    50  46  87 NE8       30.12F
SUMMERVILLE    CLOUDY    52  48  87 NE7       30.12F
BEAUFORT MCAS  CLOUDY    61  54  77 E10       30.08F
BEAUFORT ARPT  CLOUDY    61  54  77 E10       30.08F HAZE
HILTON HEAD IS CLOUDY    63  57  82 NE7G16    30.08F
WALTERBORO     CLOUDY    55  46  71 NE5       30.11S
ALLENDALE      LGT RAIN  50  46  87 CALM      30.09S

...SOUTHERN MIDLANDS AND PEE DEE...

CITY           SKY/WX    TMP DP  RH WIND       PRES   REMARKS
GEORGETOWN     NOT AVBL
KINGSTREE      DRIZZLE   46  39  76 NE5       30.15F
ORANGEBURG     CLOUDY    48  43  82 NE7       30.13S
BARNWELL       NOT AVBL
AIKEN          RAIN      43  41  93 NE7       30.15R
MANNING        NOT AVBL
COLUMBIA       LGT RAIN  48  41  76 NE8       30.13F
SUMTER         CLOUDY    48  38  70 E10       30.13S
FLORENCE       CLOUDY    47  42  83 NE7       30.18S
MYRTLE BEACH   CLOUDY    52  37  58 NE9       30.18F
N MYRTLE BEACH LGT RAIN  48  40  73 NE8       30.16F

$$

GAZ063-065-086>088-099>101-113>116-118-119-134>141-150-042200-
...SOUTHEAST GEORGIA...

CITY           SKY/WX    TMP DP  RH WIND       PRES   REMARKS
SAVANNAH ARPT  CLOUDY    63  53  70 E10       30.06F
HUNTER AAF     CLOUDY    63  59  87 E6        30.04S
FORT STEWART   CLOUDY    64  55  72 E3        30.02F
STATESBORO     LGT RAIN  61  54  77 E5        30.07R
SYLVANIA       CLOUDY   N/A N/A N/A NE6       30.09S
CLAXTON        CLOUDY    64  56  77 E6        30.05S

...CSRA...CENTRAL AND FAR SOUTHEAST GEORGIA...

CITY           SKY/WX    TMP DP  RH WIND       PRES   REMARKS
THOMSON        CLOUDY    47  47 100 E3        30.14F
AUGUSTA-BUSH   RAIN      48  44  86 N6        30.12R FOG
AUGUSTA-DANIEL RAIN      47  42  83 NE7       30.12S
SWAINSBORO     CLOUDY    54  46  76 NE7       30.07F
VIDALIA        CLOUDY    64  59  82 E6        30.04S
EASTMAN        CLOUDY    64  43  46 CALM      30.05S
HAZLEHURST     CLOUDY    67  61  79 E5        30.01F
ALMA           CLOUDY    69  60  73 SE6       30.01F
WAYCROSS       CLOUDY    76  66  71 SE8       30.01F
JESUP          CLOUDY    68  63  83 SE6       30.03S
BAXLEY         CLOUDY    68  63  83 E5        30.02F
BRUNSWICK      CLOUDY    72  64  78 SE6       30.04S
SAINT SIMONS   PTSUNNY   69  63  81 SE7       30.03F

$$

SCZ027-028-034-036>038-045-046-048>050-GAZ119-141-042200-
...LAKE AND SUPPLEMENTAL COASTAL OBSERVATIONS...

STATION/POSITION TIME  TEMP    WIND        PRES    WAVE   SWELL
                       AIR SEA DIR/SP/G            HT/PER HT/PER/DIR
                 (UTC) (F)     (DEG/KT/KT) (MB)    (FT/S) (FT/S/D)
WINYAH BAY       2045   53      40/ 12     1021.0S
LAKE MURRAY      2050   46      40/  3/  6 1020.0F
ACE BASIN NERRS  2045   61      50/  5     1019.0S
FORT PULASKI     2100   61 61   70/ 11/ 15 1018.1
SAPELO ISLAND    2100   69     100/  6     1017.0

$$

ANZ835-935-AMZ111-154-330-350-352-354-370-450-454-472-042200-
...C-MAN AND BUOY OBSERVATIONS...

STATION/POSITION TIME  TEMP    WIND        PRES    WAVE   SWELL
                       AIR SEA DIR/SP/G            HT/PER HT/PER/DIR
                 (UTC) (F)     (DEG/KT/KT) (MB)    (FT/S) (FT/S/D)
BUOY 41004       2050   70 75  120/ 12/ 17 1018.9F   3/ 5   2/110/ 8
BUOY 41008       2050   67 65  100/  8/  8 1017.4F   3/ 5   3/ 90/ 5
FOLLY BEACH CMAN 2100   58      40/ 19/ 22 1019.8F
CAPERS NEARSHORE 2108   59 61   60/ 19/ 27 1019.0F
FRIPP NEARSHORE  2108   62 62   60/ 14/ 17 1018.0F


STATION/POSITION TIME  TEMP    WIND        PRES    WAVE   SWELL
                       AIR SEA DIR/SP/G            HT/PER HT/PER/DIR
                 (UTC) (F)     (DEG/KT/KT) (MB)    (FT/S) (FT/S/D)
5E ST. MARYS GA  2100      66                N/A     3/ 5
FRYING PAN BUOY  2110   62 74   50/ 17/ 21 1021.0
BUOY 41025       2050   55 75   20/ 10/ 16 1023.5R   4/ 8   3/ 50/ 8
CAPE LOOKOUT NC  2100   50      30/ 10/ 12 1022.8S
BUOY 41002       2050   66 74   80/  4/  6 1021.3R   4/ 9   5/ 30/ 9
BUOY 41010       NOT AVBL
ST AUGUSTINE FL  2100   70 68  130/ 13/ 14 1017.4S


$$



USA.gov is the U.S. government's official web portal to all federal, state and local government web resources and services.